Time,TemperatureF,DewpointF,PressureIn,WindDirection,WindDirectionDegrees,WindSpeedMPH,WindSpeedGustMPH,Humidity,HourlyPrecipIn,Conditions,Clouds,dailyrainin,SoftwareType,DateUTC
2013-08-03 00:02:00,60.0,51.0,30.09,NW,310,0.0,-999.0,72,-99.99,,,-99.99,,2013-08-03 05:02:00,
2013-08-03 00:12:00,60.0,51.0,30.09,NW,310,0.0,-999.0,72,-99.99,,,-99.99,,2013-08-03 05:12:00,
2013-08-03 00:22:00,59.0,51.0,30.10,NW,310,0.0,-999.0,76,-99.99,,,-99.99,,2013-08-03 05:22:00,
2013-08-03 00:32:00,59.0,51.0,30.10,NW,310,0.0,-999.0,76,-99.99,,,-99.99,,2013-08-03 05:32:00,
2013-08-03 00:42:00,59.0,51.0,30.10,NW,310,0.0,-999.0,76,-99.99,,,-99.99,,2013-08-03 05:42:00,
2013-08-03 00:52:00,58.0,52.0,30.11,NW,310,0.0,-999.0,81,-99.99,,,-99.99,,2013-08-03 05:52:00,
2013-08-03 01:02:00,58.0,52.0,30.11,NW,310,0.0,-999.0,81,-99.99,,,-99.99,,2013-08-03 06:02:00,
2013-08-03 01:12:00,58.0,52.0,30.11,NW,310,0.0,-999.0,81,-99.99,,,-99.99,,2013-08-03 06:12:00,
2013-08-03 01:23:00,57.0,53.0,30.12,NW,310,0.0,-999.0,85,-99.99,,,-99.99,,2013-08-03 06:23:00,
2013-08-03 01:32:00,57.0,53.0,30.12,NW,310,0.0,-999.0,85,-99.99,,,-99.99,,2013-08-03 06:32:00,
2013-08-03 01:42:00,57.0,53.0,30.12,NW,310,0.0,-999.0,85,-99.99,,,-99.99,,2013-08-03 06:42:00,
2013-08-03 01:52:00,57.0,53.0,30.11,NW,310,0.0,-999.0,87,-99.99,,,-99.99,,2013-08-03 06:52:00,
2013-08-03 02:02:00,57.0,53.0,30.11,NW,310,0.0,-999.0,87,-99.99,,,-99.99,,2013-08-03 07:02:00,
2013-08-03 02:12:00,57.0,53.0,30.11,NW,310,0.0,-999.0,87,-99.99,,,-99.99,,2013-08-03 07:12:00,
2013-08-03 02:22:00,56.0,53.0,30.11,NW,310,0.0,-999.0,89,-99.99,,,-99.99,,2013-08-03 07:22:00,
2013-08-03 02:32:00,56.0,53.0,30.11,NW,310,0.0,-999.0,89,-99.99,,,-99.99,,2013-08-03 07:32:00,
2013-08-03 02:43:00,56.0,53.0,30.11,NW,310,0.0,-999.0,89,-99.99,,,-99.99,,2013-08-03 07:43:00,
2013-08-03 02:53:00,56.0,53.0,30.12,NW,310,0.0,-999.0,90,-99.99,,,-99.99,,2013-08-03 07:53:00,
2013-08-03 03:02:00,56.0,53.0,30.12,NW,310,0.0,-999.0,90,-99.99,,,-99.99,,2013-08-03 08:02:00,
2013-08-03 03:12:00,56.0,53.0,30.12,NW,310,0.0,-999.0,90,-99.99,,,-99.99,,2013-08-03 08:12:00,
2013-08-03 03:22:00,55.0,52.0,30.12,NW,310,0.0,-999.0,90,-99.99,,,-99.99,,2013-08-03 08:22:00,
2013-08-03 03:32:00,55.0,52.0,30.12,NW,310,0.0,-999.0,90,-99.99,,,-99.99,,2013-08-03 08:32:00,
2013-08-03 03:43:00,55.0,52.0,30.12,NW,310,0.0,-999.0,90,-99.99,,,-99.99,,2013-08-03 08:43:00,
2013-08-03 03:52:00,54.0,51.0,30.13,NW,310,0.0,-999.0,90,-99.99,,,-99.99,,2013-08-03 08:52:00,
2013-08-03 04:02:00,54.0,51.0,30.13,NW,310,0.0,-999.0,90,-99.99,,,-99.99,,2013-08-03 09:02:00,
2013-08-03 04:12:00,54.0,51.0,30.13,NW,310,0.0,-999.0,90,-99.99,,,-99.99,,2013-08-03 09:12:00,
2013-08-03 04:22:00,54.0,51.0,30.13,NW,310,0.0,-999.0,91,-99.99,,,-99.99,,2013-08-03 09:22:00,
2013-08-03 04:32:00,54.0,51.0,30.13,NW,310,0.0,-999.0,91,-99.99,,,-99.99,,2013-08-03 09:32:00,
2013-08-03 04:43:00,54.0,51.0,30.13,NW,310,0.0,-999.0,91,-99.99,,,-99.99,,2013-08-03 09:43:00,
2013-08-03 04:53:00,53.0,50.0,30.13,NW,310,0.0,-999.0,90,-99.99,,,-99.99,,2013-08-03 09:53:00,
2013-08-03 05:02:00,53.0,50.0,30.13,NW,310,0.0,-999.0,90,-99.99,,,-99.99,,2013-08-03 10:02:00,
2013-08-03 05:12:00,53.0,50.0,30.13,NW,310,0.0,-999.0,90,-99.99,,,-99.99,,2013-08-03 10:12:00,
2013-08-03 05:22:00,53.0,50.0,30.15,NW,310,0.0,-999.0,90,-99.99,,,-99.99,,2013-08-03 10:22:00,
2013-08-03 05:32:00,53.0,50.0,30.15,NW,310,0.0,-999.0,90,-99.99,,,-99.99,,2013-08-03 10:32:00,
2013-08-03 05:43:00,53.0,50.0,30.15,NW,310,0.0,-999.0,90,-99.99,,,-99.99,,2013-08-03 10:43:00,
2013-08-03 05:53:00,53.0,51.0,30.15,NW,310,0.0,-999.0,92,-99.99,,,-99.99,,2013-08-03 10:53:00,
2013-08-03 06:02:00,53.0,51.0,30.15,NW,310,0.0,-999.0,92,-99.99,,,-99.99,,2013-08-03 11:02:00,
2013-08-03 06:12:00,53.0,51.0,30.15,NW,310,0.0,-999.0,92,-99.99,,,-99.99,,2013-08-03 11:12:00,
2013-08-03 06:22:00,52.0,50.0,30.15,NW,310,0.0,-999.0,92,-99.99,,,-99.99,,2013-08-03 11:22:00,
2013-08-03 06:32:00,52.0,50.0,30.15,NW,310,0.0,-999.0,92,-99.99,,,-99.99,,2013-08-03 11:32:00,
2013-08-03 06:43:00,52.0,50.0,30.15,NW,310,0.0,-999.0,92,-99.99,,,-99.99,,2013-08-03 11:43:00,
2013-08-03 06:53:00,52.0,50.0,30.16,NW,310,0.0,-999.0,93,-99.99,,,-99.99,,2013-08-03 11:53:00,
2013-08-03 07:02:00,52.0,50.0,30.16,NW,310,0.0,-999.0,93,-99.99,,,-99.99,,2013-08-03 12:02:00,
2013-08-03 07:12:00,52.0,50.0,30.16,NW,310,0.0,-999.0,93,-99.99,,,-99.99,,2013-08-03 12:12:00,
2013-08-03 07:22:00,54.0,52.0,30.17,NW,310,0.0,-999.0,94,-99.99,,,-99.99,,2013-08-03 12:22:00,
2013-08-03 07:33:00,54.0,52.0,30.17,NW,310,0.0,-999.0,94,-99.99,,,-99.99,,2013-08-03 12:33:00,
2013-08-03 07:43:00,54.0,52.0,30.17,NW,310,0.0,-999.0,94,-99.99,,,-99.99,,2013-08-03 12:43:00,
2013-08-03 07:53:00,57.0,54.0,30.17,NW,310,0.0,-999.0,91,-99.99,,,-99.99,,2013-08-03 12:53:00,
2013-08-03 08:02:00,57.0,54.0,30.17,NW,310,0.0,-999.0,91,-99.99,,,-99.99,,2013-08-03 13:02:00,
2013-08-03 08:12:00,57.0,54.0,30.17,NW,310,0.0,-999.0,91,-99.99,,,-99.99,,2013-08-03 13:12:00,
2013-08-03 08:22:00,58.0,54.0,30.18,NW,310,0.0,-999.0,85,-99.99,,,-99.99,,2013-08-03 13:22:00,
2013-08-03 08:33:00,58.0,54.0,30.18,NW,310,0.0,-999.0,85,-99.99,,,-99.99,,2013-08-03 13:33:00,
2013-08-03 08:43:00,58.0,54.0,30.18,NW,310,0.0,-999.0,85,-99.99,,,-99.99,,2013-08-03 13:43:00,
2013-08-03 08:52:00,61.0,55.0,30.20,NW,310,0.0,-999.0,81,-99.99,,,-99.99,,2013-08-03 13:52:00,
2013-08-03 09:02:00,61.0,55.0,30.20,NW,310,0.0,-999.0,81,-99.99,,,-99.99,,2013-08-03 14:02:00,
2013-08-03 09:13:00,61.0,55.0,30.20,NW,310,0.0,-999.0,81,-99.99,,,-99.99,,2013-08-03 14:13:00,
2013-08-03 09:22:00,61.0,55.0,30.20,NW,310,0.0,-999.0,81,-99.99,,,-99.99,,2013-08-03 14:22:00,
2013-08-03 09:52:00,66.0,54.0,30.20,NW,310,0.0,-999.0,66,-99.99,,,-99.99,,2013-08-03 14:52:00,
2013-08-03 10:02:00,66.0,54.0,30.20,NW,310,0.0,-999.0,66,-99.99,,,-99.99,,2013-08-03 15:02:00,
2013-08-03 10:12:00,66.0,54.0,30.20,NW,310,0.0,-999.0,66,-99.99,,,-99.99,,2013-08-03 15:12:00,
2013-08-03 10:22:00,67.0,52.0,30.21,NW,320,0.0,-999.0,59,-99.99,,,-99.99,,2013-08-03 15:22:00,
2013-08-03 10:32:00,67.0,52.0,30.21,NW,320,0.0,-999.0,59,-99.99,,,-99.99,,2013-08-03 15:32:00,
2013-08-03 10:43:00,67.0,52.0,30.21,NW,320,0.0,-999.0,59,-99.99,,,-99.99,,2013-08-03 15:43:00,
2013-08-03 10:53:00,69.0,52.0,30.22,NW,307,0.0,-999.0,55,-99.99,,,-99.99,,2013-08-03 15:53:00,
2013-08-03 11:02:00,69.0,52.0,30.22,NW,307,0.0,-999.0,55,-99.99,,,-99.99,,2013-08-03 16:02:00,
2013-08-03 11:12:00,69.0,52.0,30.22,NW,307,0.0,-999.0,55,-99.99,,,-99.99,,2013-08-03 16:12:00,
2013-08-03 11:22:00,70.0,49.0,30.21,North,0,5.0,-999.0,48,-99.99,,,-99.99,,2013-08-03 16:22:00,
2013-08-03 11:33:00,70.0,49.0,30.21,North,0,5.0,-999.0,48,-99.99,,,-99.99,,2013-08-03 16:33:00,
2013-08-03 11:43:00,70.0,49.0,30.21,North,0,5.0,-999.0,48,-99.99,,,-99.99,,2013-08-03 16:43:00,
2013-08-03 11:53:00,71.0,50.0,30.21,North,352,0.0,-999.0,47,-99.99,,,-99.99,,2013-08-03 16:53:00,
2013-08-03 12:03:00,71.0,50.0,30.21,North,352,0.0,-999.0,47,-99.99,,,-99.99,,2013-08-03 17:03:00,
2013-08-03 12:12:00,71.0,50.0,30.21,North,352,0.0,-999.0,47,-99.99,,,-99.99,,2013-08-03 17:12:00,
2013-08-03 12:22:00,71.0,49.0,30.21,NW,314,4.0,-999.0,45,-99.99,,,-99.99,,2013-08-03 17:22:00,
2013-08-03 12:32:00,71.0,49.0,30.21,NW,314,4.0,-999.0,45,-99.99,,,-99.99,,2013-08-03 17:32:00,
2013-08-03 12:43:00,71.0,49.0,30.21,NW,314,4.0,-999.0,45,-99.99,,,-99.99,,2013-08-03 17:43:00,
2013-08-03 12:52:00,72.0,50.0,30.21,NNW,347,4.0,-999.0,46,-99.99,,,-99.99,,2013-08-03 17:52:00,
2013-08-03 13:02:00,72.0,50.0,30.21,NNW,347,4.0,-999.0,46,-99.99,,,-99.99,,2013-08-03 18:02:00,
2013-08-03 13:12:00,72.0,50.0,30.21,NNW,347,4.0,-999.0,46,-99.99,,,-99.99,,2013-08-03 18:12:00,
2013-08-03 13:22:00,73.0,51.0,30.21,NNE,16,1.0,-999.0,46,-99.99,,,-99.99,,2013-08-03 18:22:00,
2013-08-03 13:32:00,73.0,51.0,30.21,NNE,16,1.0,-999.0,46,-99.99,,,-99.99,,2013-08-03 18:32:00,
2013-08-03 13:43:00,73.0,51.0,30.21,NNE,16,1.0,-999.0,46,-99.99,,,-99.99,,2013-08-03 18:43:00,
2013-08-03 13:53:00,71.0,51.0,30.21,North,1,7.0,-999.0,49,-99.99,,,-99.99,,2013-08-03 18:53:00,
2013-08-03 14:02:00,71.0,51.0,30.21,North,1,7.0,-999.0,49,-99.99,,,-99.99,,2013-08-03 19:02:00,
2013-08-03 14:12:00,71.0,51.0,30.21,North,1,7.0,-999.0,49,-99.99,,,-99.99,,2013-08-03 19:12:00,
2013-08-03 14:22:00,73.0,49.0,30.22,North,0,4.0,-999.0,43,-99.99,,,-99.99,,2013-08-03 19:22:00,
2013-08-03 14:32:00,73.0,49.0,30.22,North,0,4.0,-999.0,43,-99.99,,,-99.99,,2013-08-03 19:32:00,
2013-08-03 14:43:00,73.0,49.0,30.22,North,0,4.0,-999.0,43,-99.99,,,-99.99,,2013-08-03 19:43:00,
2013-08-03 14:53:00,73.0,47.0,30.21,WNW,291,4.0,-999.0,40,-99.99,,,-99.99,,2013-08-03 19:53:00,
2013-08-03 15:02:00,73.0,47.0,30.21,WNW,291,4.0,-999.0,40,-99.99,,,-99.99,,2013-08-03 20:02:00,
2013-08-03 15:12:00,73.0,47.0,30.21,WNW,291,4.0,-999.0,40,-99.99,,,-99.99,,2013-08-03 20:12:00,
2013-08-03 15:22:00,73.0,48.0,30.21,NNW,334,2.0,-999.0,41,-99.99,,,-99.99,,2013-08-03 20:22:00,
2013-08-03 15:32:00,73.0,48.0,30.21,NNW,334,2.0,-999.0,41,-99.99,,,-99.99,,2013-08-03 20:32:00,
2013-08-03 15:42:00,73.0,48.0,30.21,NNW,334,2.0,-999.0,41,-99.99,,,-99.99,,2013-08-03 20:42:00,
2013-08-03 15:52:00,73.0,49.0,30.20,NNW,341,1.0,-999.0,42,-99.99,,,-99.99,,2013-08-03 20:52:00,
2013-08-03 16:02:00,73.0,49.0,30.20,NNW,341,1.0,-999.0,42,-99.99,,,-99.99,,2013-08-03 21:02:00,
2013-08-03 16:12:00,73.0,49.0,30.20,NNW,341,1.0,-999.0,42,-99.99,,,-99.99,,2013-08-03 21:12:00,
2013-08-03 16:22:00,73.0,49.0,30.20,North,1,0.0,-999.0,43,-99.99,,,-99.99,,2013-08-03 21:22:00,
2013-08-03 16:32:00,73.0,49.0,30.20,North,1,0.0,-999.0,43,-99.99,,,-99.99,,2013-08-03 21:32:00,
2013-08-03 16:42:00,73.0,49.0,30.20,North,1,0.0,-999.0,43,-99.99,,,-99.99,,2013-08-03 21:42:00,
2013-08-03 16:52:00,73.0,50.0,30.20,NE,39,4.0,-999.0,44,-99.99,,,-99.99,,2013-08-03 21:52:00,
2013-08-03 17:02:00,73.0,50.0,30.20,NE,39,4.0,-999.0,44,-99.99,,,-99.99,,2013-08-03 22:02:00,
2013-08-03 17:12:00,73.0,50.0,30.20,NE,39,4.0,-999.0,44,-99.99,,,-99.99,,2013-08-03 22:12:00,
2013-08-03 17:22:00,73.0,49.0,30.20,North,350,5.0,-999.0,42,-99.99,,,-99.99,,2013-08-03 22:22:00,
2013-08-03 17:33:00,73.0,49.0,30.20,North,350,5.0,-999.0,42,-99.99,,,-99.99,,2013-08-03 22:33:00,
2013-08-03 17:43:00,73.0,49.0,30.20,North,350,5.0,-999.0,42,-99.99,,,-99.99,,2013-08-03 22:43:00,
2013-08-03 17:52:00,74.0,48.0,30.20,NW,320,0.0,-999.0,40,-99.99,,,-99.99,,2013-08-03 22:52:00,
2013-08-03 18:02:00,74.0,48.0,30.20,NW,320,0.0,-999.0,40,-99.99,,,-99.99,,2013-08-03 23:02:00,
2013-08-03 18:12:00,74.0,48.0,30.20,NW,320,0.0,-999.0,40,-99.99,,,-99.99,,2013-08-03 23:12:00,
2013-08-03 18:22:00,74.0,47.0,30.19,NNE,16,6.0,-999.0,39,-99.99,,,-99.99,,2013-08-03 23:22:00,
2013-08-03 18:32:00,74.0,47.0,30.19,NNE,16,6.0,-999.0,39,-99.99,,,-99.99,,2013-08-03 23:32:00,
2013-08-03 18:42:00,74.0,47.0,30.19,NNE,16,6.0,-999.0,39,-99.99,,,-99.99,,2013-08-03 23:42:00,
2013-08-03 18:52:00,73.0,47.0,30.20,North,352,1.0,-999.0,40,-99.99,,,-99.99,,2013-08-03 23:52:00,
2013-08-03 19:02:00,73.0,47.0,30.20,North,352,1.0,-999.0,40,-99.99,,,-99.99,,2013-08-04 00:02:00,
2013-08-03 19:12:00,73.0,47.0,30.20,North,352,1.0,-999.0,40,-99.99,,,-99.99,,2013-08-04 00:12:00,
2013-08-03 19:22:00,73.0,47.0,30.20,NW,316,1.0,-999.0,40,-99.99,,,-99.99,,2013-08-04 00:22:00,
2013-08-03 19:32:00,73.0,47.0,30.20,NW,316,1.0,-999.0,40,-99.99,,,-99.99,,2013-08-04 00:32:00,
2013-08-03 19:42:00,73.0,47.0,30.20,NW,316,1.0,-999.0,40,-99.99,,,-99.99,,2013-08-04 00:42:00,
2013-08-03 19:53:00,72.0,47.0,30.20,North,0,0.0,-999.0,41,-99.99,,,-99.99,,2013-08-04 00:53:00,
2013-08-03 20:02:00,72.0,47.0,30.20,North,0,0.0,-999.0,41,-99.99,,,-99.99,,2013-08-04 01:02:00,
2013-08-03 20:12:00,72.0,47.0,30.20,North,0,0.0,-999.0,41,-99.99,,,-99.99,,2013-08-04 01:12:00,
2013-08-03 20:22:00,72.0,47.0,30.20,North,0,0.0,-999.0,41,-99.99,,,-99.99,,2013-08-04 01:22:00,
2013-08-03 20:32:00,72.0,47.0,30.20,North,0,0.0,-999.0,41,-99.99,,,-99.99,,2013-08-04 01:32:00,
2013-08-03 20:42:00,71.0,47.0,30.20,North,0,0.0,-999.0,42,-99.99,,,-99.99,,2013-08-04 01:42:00,
2013-08-03 20:53:00,69.0,47.0,30.20,North,0,0.0,-999.0,46,-99.99,,,-99.99,,2013-08-04 01:53:00,
2013-08-03 21:02:00,69.0,47.0,30.20,North,0,0.0,-999.0,46,-99.99,,,-99.99,,2013-08-04 02:02:00,
2013-08-03 21:12:00,69.0,47.0,30.20,North,0,0.0,-999.0,46,-99.99,,,-99.99,,2013-08-04 02:12:00,
2013-08-03 21:22:00,69.0,47.0,30.20,North,0,0.0,-999.0,46,-99.99,,,-99.99,,2013-08-04 02:22:00,
2013-08-03 21:32:00,69.0,47.0,30.20,North,0,0.0,-999.0,46,-99.99,,,-99.99,,2013-08-04 02:32:00,
2013-08-03 21:52:00,65.0,48.0,30.22,North,0,0.0,-999.0,55,-99.99,,,-99.99,,2013-08-04 02:52:00,
2013-08-03 22:02:00,65.0,48.0,30.22,North,0,0.0,-999.0,55,-99.99,,,-99.99,,2013-08-04 03:02:00,
2013-08-03 22:12:00,65.0,48.0,30.22,North,0,0.0,-999.0,55,-99.99,,,-99.99,,2013-08-04 03:12:00,
2013-08-03 22:22:00,65.0,48.0,30.22,North,0,0.0,-999.0,55,-99.99,,,-99.99,,2013-08-04 03:22:00,
2013-08-03 22:32:00,65.0,48.0,30.22,North,0,0.0,-999.0,55,-99.99,,,-99.99,,2013-08-04 03:32:00,
2013-08-03 22:42:00,64.0,48.0,30.22,North,0,0.0,-999.0,57,-99.99,,,-99.99,,2013-08-04 03:42:00,
2013-08-03 22:52:00,64.0,48.0,30.22,North,0,0.0,-999.0,57,-99.99,,,-99.99,,2013-08-04 03:52:00,
2013-08-03 23:03:00,64.0,48.0,30.22,North,0,0.0,-999.0,57,-99.99,,,-99.99,,2013-08-04 04:03:00,
2013-08-03 23:12:00,64.0,48.0,30.22,North,0,0.0,-999.0,57,-99.99,,,-99.99,,2013-08-04 04:12:00,
2013-08-03 23:52:00,61.0,49.0,30.24,North,0,0.0,-999.0,65,-99.99,,,-99.99,,2013-08-04 04:52:00,